Wind_Speed
23 23 24 24 24 26 24 23 22 21 20 14 12 13 12 12 7 11 13 14 15 13 7 6 3 6 4 5 5 7 8 12 13 15 11 12 14 11 9 8 9 9 9 8
24 26 23 23 26 28 32 30 28 27 23 17 15 18 15 15 12 10 14 16 13 13 4 6 3 2 6 9 9 9 11 14 15 17 14 12 11 15 11 10 10 10 9 9
24 22 24 26 26 24 25 28 30 30 30 28 25 20 12 16 16 13 14 15 13 13 15 14 10 10 10 13 14 13 13 15 16 15 16 15 11 14 12 11 13 14 12 12
32 29 24 21 19 22 20 21 22 18 20 26 27 19 13 16 18 16 16 17 15 13 16 18 10 13 15 13 15 15 15 17 18 17 18 17 16 14 15 13 12 13 14 13
40 36 30 24 20 18 16 17 19 19 22 22 24 18 20 18 20 20 17 17 15 18 18 19 12 16 19 19 18 21 20 19 19 17 20 21 19 18 18 17 15 17 17 17
37 39 37 29 25 24 23 25 23 25 28 27 25 24 19 19 21 20 22 21 19 16 15 16 18 16 21 23 25 22 21 21 22 21 20 21 22 20 22 23 22 22 22 22
37 39 40 38 33 30 29 27 28 27 29 26 23 18 23 23 23 22 22 17 16 16 17 16 17 20 25 22 21 21 20 20 21 21 23 23 22 23 25 26 27 27 27 27
38 39 40 38 41 38 33 32 28 24 26 25 22 19 18 21 19 19 15 16 17 18 19 19 20 24 25 24 23 22 21 22 24 23 24 25 26 25 26 28 30 31 32 33
42 40 38 38 38 41 41 39 34 30 28 25 23 21 19 18 18 20 19 15 16 17 21 25 26 26 25 26 25 24 27 29 28 27 27 26 25 25 27 29 30 31 33 30
43 42 42 39 39 40 38 37 35 30 28 27 24 22 22 18 21 20 19 16 20 25 30 31 30 27 24 23 25 26 25 24 22 25 27 28 27 27 29 30 30 33 34 34
46 45 43 43 42 39 36 33 31 28 27 30 29 26 23 23 23 24 22 25 25 28 30 32 27 24 23 24 24 24 25 24 26 28 30 31 29 27 28 28 30 33 32 30
47 47 46 45 44 41 39 36 33 31 29 28 29 30 25 25 24 25 23 23 24 23 23 20 17 22 24 23 26 27 28 28 29 32 33 33 31 30 31 29 31 31 32 31
47 47 46 46 44 41 38 37 35 32 32 32 31 30 30 29 29 27 30 28 27 25 26 27 24 22 25 27 28 29 31 31 34 36 33 31 30 32 32 34 35 35 35 35
32 46 46 46 43 41 42 39 36 33 31 28 28 26 27 28 28 31 29 26 27 29 32 34 32 31 32 33 35 36 37 37 39 39 34 33 33 33 34 36 36 35 35 35
35 34 40 41 42 42 37 35 37 34 32 33 31 29 27 27 28 28 27 29 33 33 32 34 37 37 40 41 41 40 41 42 37 33 34 34 34 35 36 36 35 35 35 35
34 28 28 29 38 40 42 41 34 35 34 32 29 28 28 27 29 30 31 31 31 29 30 32 37 39 39 39 38 37 35 32 30 30 31 32 34 35 35 35 34 33 34 33
38 34 35 30 30 35 38 38 37 34 31 31 31 30 29 29 28 27 28 30 32 34 35 35 33 32 33 32 26 26 26 28 28 30 32 34 36 36 34 33 33 33 32 32
46 41 40 34 29 29 32 41 42 45 44 42 38 35 32 31 31 32 35 35 35 34 33 30 32 31 30 30 29 30 30 31 33 34 36 37 36 34 33 35 35 33 32 34
37 37 36 35 31 30 30 30 32 36 40 42 41 38 36 34 33 32 32 31 29 29 29 31 35 36 32 31 31 32 33 33 33 34 34 35 34 35 35 36 35 36 36 34
36 28 22 28 32 30 29 29 29 30 33 37 39 38 36 34 32 31 29 28 31 34 36 36 33 30 28 28 31 34 34 34 33 33 32 31 31 34 35 35 35 34 31 29
22 25 26 26 31 29 29 30 32 29 27 28 28 29 31 30 28 27 27 28 30 31 31 31 33 31 27 26 27 29 28 29 31 33 33 33 32 32 32 32 31 29 27 26
28 27 24 24 26 30 32 31 29 29 27 29 26 25 26 25 25 26 26 28 30 30 27 25 23 22 22 22 22 26 25 26 29 32 31 29 27 25 27 28 30 28 26 25
22 23 23 25 28 27 26 28 28 25 26 24 22 21 22 22 23 26 26 21 19 20 21 22 22 20 20 20 23 25 30 30 30 28 24 24 25 26 26 26 27 28 29 31
15 17 18 18 19 20 20 22 23 23 22 27 27 28 24 22 23 19 16 22 20 18 18 20 20 19 18 20 25 27 29 29 24 26 28 28 30 30 30 31 32 33 33 34
14 14 15 17 16 17 19 19 18 17 19 21 19 18 17 19 19 17 20 21 19 17 19 19 18 20 29 29 30 27 27 25 27 29 31 33 34 35 35 37 38 40 41 41
14 16 16 17 18 15 13 16 19 20 12 10 11 11 13 16 18 19 20 18 19 21 19 21 23 23 25 25 26 27 26 29 33 37 40 42 42 43 43 44 44 44 45 45
8 10 9 10 24 16 11 13 11 15 15 13 14 16 19 20 19 16 17 20 26 24 26 24 22 24 27 29 29 31 36 39 41 42 44 45 45 46 45 45 45 45 45 45
Wind_Direction
234 230 230 240 245 235 242 255 261 262 264 258 275 298 288 294 296 308 318 349 357 9 42 64 141 162 155 56 3 334 322 306 319 335 344 357 348 343 343 354 357 0 4 2
228 223 221 232 241 247 251 252 260 270 276 282 292 308 282 266 281 288 305 340 347 355 291 324 296 6 36 50 43 10 331 313 317 324 336 335 344 337 321 305 323 330 339 347
246 230 230 234 234 238 246 253 260 266 277 285 288 297 271 253 275 278 295 320 325 325 323 313 292 327 346 360 354 347 335 323 308 311 316 315 336 328 315 307 305 310 323 333
257 262 253 233 232 235 247 252 263 271 281 276 280 275 274 261 266 272 296 314 320 317 322 312 292 306 319 331 327 317 314 311 308 303 300 305 309 310 299 297 298 304 308 311
252 258 261 254 245 245 252 259 262 272 283 281 277 267 257 264 255 265 296 308 315 313 314 302 300 300 310 315 317 312 304 299 293 297 299 296 294 297 295 287 285 290 294 299
248 250 255 258 260 263 265 269 271 274 277 277 271 272 265 264 268 273 289 301 305 304 307 308 303 313 319 316 307 303 298 296 293 295 291 291 287 283 282 281 281 287 290 295
242 249 255 258 257 256 259 264 267 275 280 278 281 262 261 264 267 271 284 290 300 305 304 307 304 310 315 312 309 307 301 295 296 299 292 287 287 283 277 277 276 277 280 287
241 242 247 253 256 257 261 264 269 278 282 280 279 268 257 257 263 270 278 272 284 290 297 298 295 302 311 311 306 300 294 290 296 300 298 294 288 286 282 280 281 283 284 285
243 245 248 249 252 256 259 262 270 278 275 270 269 266 264 263 261 260 266 271 279 290 301 292 285 290 301 305 304 304 295 290 289 290 292 289 287 285 283 281 279 279 279 280
241 241 244 247 250 253 257 263 268 268 261 261 265 266 266 251 255 265 255 261 286 290 291 298 289 277 289 291 296 302 306 306 299 290 292 292 292 289 284 280 280 279 281 281
243 242 242 243 246 251 254 256 259 258 254 249 256 259 266 256 253 249 256 269 281 286 291 290 280 266 278 284 292 299 300 303 304 305 300 297 293 288 281 278 276 277 278 273
245 245 244 245 248 248 251 252 252 252 248 245 251 256 252 247 256 260 254 264 273 278 279 279 262 270 280 284 297 301 304 304 306 302 298 295 288 283 281 278 278 277 279 273
241 242 245 246 245 247 249 250 248 248 247 250 252 253 251 251 254 257 251 266 264 265 270 265 271 284 289 290 296 298 301 300 302 300 295 286 278 278 278 278 279 281 280 281
236 237 239 239 243 245 247 249 247 243 243 244 246 249 252 255 257 255 258 259 264 259 266 270 268 275 283 295 297 298 296 291 292 292 286 278 275 276 278 278 278 278 280 282
230 231 231 232 236 238 240 246 247 243 238 239 241 245 249 255 257 255 260 264 260 265 272 272 274 280 285 287 290 291 290 287 286 281 278 276 276 276 274 276 280 282 283 285
216 225 234 228 234 236 234 236 243 248 239 238 237 239 244 250 252 256 261 262 267 274 275 275 277 285 287 287 287 290 287 281 279 277 276 277 278 280 282 284 284 284 283 282
225 229 233 230 224 231 235 231 220 225 228 236 241 244 246 245 244 247 251 264 270 276 279 280 281 282 286 286 280 279 277 277 275 276 277 279 282 283 283 282 285 285 282 280
232 229 225 223 233 236 233 238 234 236 243 248 250 250 251 253 255 260 266 270 271 272 274 275 272 277 281 276 275 276 276 277 278 280 282 283 284 284 282 283 283 284 282 283
216 227 232 231 230 231 237 242 243 244 246 248 251 251 250 254 260 262 265 267 270 267 266 268 274 276 280 276 273 275 275 279 284 286 288 287 285 286 285 286 285 285 285 287
204 204 212 219 221 222 228 233 238 241 244 247 249 250 251 253 257 258 259 263 263 265 266 267 267 272 277 281 278 279 279 283 286 289 291 292 291 289 289 286 285 284 282 285
200 213 225 226 222 225 225 234 240 243 245 248 250 249 251 249 253 254 255 256 260 262 266 267 273 283 282 278 277 283 289 289 285 290 291 290 291 291 290 287 285 285 285 281
213 217 225 231 234 236 238 241 243 246 243 244 243 245 242 246 248 254 256 261 265 269 274 277 279 279 274 271 262 274 287 290 294 295 296 293 295 301 300 298 294 285 286 293
218 232 240 241 241 240 239 239 241 239 231 221 226 243 245 242 249 257 266 270 274 279 280 279 274 275 273 256 259 275 291 290 300 299 295 298 299 299 300 303 303 304 304 302
210 218 230 234 230 224 219 215 208 203 219 211 216 227 239 244 253 248 265 274 265 276 280 279 276 269 262 271 286 285 292 298 300 302 304 302 301 298 298 298 297 295 293 292
204 204 201 206 198 195 198 201 199 199 206 211 219 228 245 240 256 260 275 265 291 283 280 274 269 276 284 283 284 289 299 297 297 298 298 299 301 301 300 298 296 293 291 290
146 161 169 181 172 163 182 195 198 197 218 211 241 243 259 262 268 277 279 271 283 282 278 274 270 270 273 276 290 295 293 296 294 295 299 301 302 299 297 295 294 293 292 291
119 106 128 114 128 135 135 162 190 201 203 223 249 263 267 267 270 267 255 262 268 274 276 276 278 278 286 292 294 290 289 291 297 300 299 298 297 297 296 296 296 296 295 294
Height
5853 5855 5857 5858 5861 5863 5865 5866 5868 5869 5871 5873 5873 5872 5873 5872 5870 5867 5864 5863 5859 5857 5857 5857 5858 5857 5856 5853 5851 5850 5849 5850 5847 5845 5844 5843 5841 5839 5837 5835 5834 5832 5830 5829
5846 5849 5851 5854 5856 5858 5860 5861 5862 5863 5865 5867 5868 5869 5868 5869 5868 5866 5863 5861 5858 5856 5856 5858 5858 5856 5853 5849 5849 5848 5848 5846 5843 5840 5840 5839 5838 5836 5835 5834 5833 5832 5830 5828
5837 5842 5845 5847 5851 5853 5855 5857 5858 5859 5860 5861 5862 5863 5864 5864 5864 5864 5861 5860 5858 5857 5855 5855 5854 5852 5850 5846 5845 5844 5845 5843 5842 5838 5836 5836 5835 5834 5833 5831 5831 5830 5828 5826
5829 5833 5837 5842 5845 5848 5850 5851 5853 5854 5854 5855 5856 5858 5858 5860 5861 5860 5859 5858 5857 5855 5852 5852 5849 5848 5845 5843 5843 5842 5843 5841 5839 5836 5834 5833 5832 5833 5831 5829 5828 5827 5826 5825
5822 5826 5830 5833 5838 5842 5844 5846 5847 5848 5849 5849 5849 5851 5854 5855 5855 5855 5855 5855 5853 5851 5849 5846 5844 5844 5842 5841 5840 5840 5838 5836 5835 5833 5831 5831 5830 5829 5828 5827 5825 5825 5824 5822
5816 5819 5822 5827 5832 5835 5838 5839 5841 5841 5842 5842 5844 5845 5848 5849 5850 5850 5851 5850 5849 5846 5845 5843 5841 5840 5840 5838 5838 5836 5833 5831 5830 5828 5827 5826 5825 5824 5824 5823 5822 5821 5819 5818
5809 5811 5814 5818 5824 5828 5831 5836 5833 5835 5835 5836 5837 5838 5840 5841 5843 5844 5844 5844 5842 5841 5840 5839 5838 5837 5836 5834 5831 5829 5828 5827 5826 5824 5823 5822 5821 5819 5817 5817 5816 5814 5813 5812
5800 5803 5806 5810 5814 5819 5823 5823 5826 5828 5828 5829 5830 5830 5832 5834 5835 5836 5837 5836 5835 5834 5833 5833 5833 5832 5830 5828 5827 5826 5825 5824 5822 5820 5818 5817 5815 5814 5812 5810 5809 5808 5806 5804
5792 5797 5799 5802 5805 5808 5812 5815 5818 5821 5821 5822 5824 5824 5826 5828 5828 5830 5831 5830 5830 5829 5828 5828 5827 5826 5825 5823 5822 5820 5819 5817 5815 5814 5812 5811 5809 5807 5804 5803 5802 5800 5798 5796
5781 5785 5789 5793 5796 5799 5804 5806 5809 5813 5814 5815 5817 5818 5819 5823 5822 5823 5824 5824 5824 5823 5822 5820 5820 5819 5818 5817 5816 5814 5812 5810 5808 5807 5805 5803 5801 5799 5796 5796 5793 5792 5790 5790
5769 5775 5778 5782 5785 5790 5794 5798 5801 5803 5805 5808 5810 5811 5812 5814 5815 5816 5817 5817 5817 5817 5815 5814 5812 5813 5812 5812 5811 5808 5805 5803 5800 5798 5797 5795 5792 5790 5789 5788 5786 5785 5782 5780
5759 5763 5768 5772 5775 5781 5784 5788 5792 5795 5797 5800 5802 5804 5806 5807 5808 5810 5810 5811 5811 5811 5810 5808 5807 5807 5807 5805 5802 5800 5797 5795 5793 5791 5789 5786 5784 5783 5782 5779 5778 5775 5774 5772
5747 5752 5757 5761 5766 5770 5775 5779 5782 5785 5788 5791 5793 5795 5797 5799 5800 5802 5803 5804 5804 5805 5804 5803 5801 5800 5798 5797 5794 5792 5790 5787 5785 5783 5780 5779 5778 5776 5774 5772 5770 5767 5765 5763
5734 5738 5744 5751 5756 5760 5765 5769 5772 5777 5780 5782 5784 5786 5788 5790 5793 5794 5796 5797 5797 5797 5797 5795 5794 5792 5790 5788 5786 5784 5782 5779 5776 5774 5772 5770 5768 5766 5764 5762 5759 5757 5755 5752
5723 5726 5732 5739 5744 5750 5756 5759 5764 5767 5770 5773 5776 5778 5781 5782 5784 5785 5787 5788 5789 5788 5787 5785 5784 5782 5781 5779 5777 5775 5772 5769 5766 5764 5763 5761 5759 5756 5754 5752 5749 5747 5745 5742
5714 5718 5723 5728 5733 5739 5745 5750 5754 5758 5761 5763 5767 5769 5772 5774 5776 5777 5778 5778 5778 5778 5777 5776 5775 5774 5771 5769 5766 5763 5761 5759 5757 5755 5753 5751 5748 5746 5744 5742 5739 5736 5734 5733
5702 5708 5714 5718 5722 5728 5734 5740 5746 5747 5750 5754 5759 5761 5764 5765 5767 5767 5768 5769 5769 5768 5768 5767 5765 5763 5760 5757 5756 5754 5753 5751 5749 5747 5744 5742 5739 5737 5735 5732 5730 5728 5725 5723
5693 5700 5706 5712 5716 5720 5725 5730 5735 5738 5741 5745 5747 5750 5753 5756 5757 5758 5758 5759 5759 5759 5758 5756 5755 5754 5751 5749 5747 5746 5744 5742 5740 5738 5735 5733 5730 5727 5725 5723 5721 5719 5716 5714
5685 5691 5697 5703 5708 5711 5715 5719 5723 5727 5732 5735 5738 5741 5743 5745 5747 5748 5749 5749 5748 5747 5747 5746 5745 5743 5742 5741 5739 5737 5735 5733 5731 5728 5726 5723 5721 5719 5716 5713 5710 5708 5705 5702
5677 5684 5689 5693 5699 5703 5706 5709 5713 5716 5720 5723 5727 5730 5733 5736 5737 5738 5738 5739 5739 5738 5737 5736 5735 5734 5733 5731 5729 5726 5725 5724 5721 5719 5716 5714 5711 5709 5706 5703 5700 5697 5695 5692
5671 5677 5682 5685 5690 5695 5699 5702 5705 5708 5712 5714 5716 5719 5723 5725 5727 5728 5729 5729 5729 5728 5728 5727 5726 5725 5723 5721 5720 5718 5718 5715 5713 5710 5707 5705 5702 5699 5696 5693 5690 5688 5686 5684
5666 5672 5675 5679 5682 5686 5690 5693 5697 5700 5703 5705 5708 5711 5713 5715 5718 5719 5719 5720 5719 5719 5719 5718 5717 5716 5716 5714 5714 5712 5710 5708 5705 5702 5699 5697 5694 5691 5689 5686 5683 5679 5677 5675
5661 5665 5668 5671 5675 5679 5682 5686 5689 5693 5696 5700 5702 5704 5706 5709 5711 5711 5711 5712 5712 5712 5711 5710 5709 5709 5708 5707 5706 5705 5703 5700 5698 5695 5692 5690 5687 5684 5680 5677 5674 5671 5668 5666
5658 5661 5664 5667 5669 5673 5677 5679 5683 5685 5689 5693 5696 5699 5701 5703 5704 5705 5706 5706 5706 5705 5703 5704 5703 5703 5701 5700 5699 5698 5696 5693 5690 5688 5685 5682 5679 5675 5672 5669 5666 5663 5660 5657
5655 5658 5660 5663 5666 5669 5672 5675 5679 5682 5685 5689 5693 5696 5697 5698 5699 5700 5699 5697 5698 5697 5696 5697 5696 5696 5695 5693 5691 5689 5687 5685 5683 5680 5676 5673 5669 5665 5662 5658 5655 5651 5648 5645
5653 5656 5659 5661 5665 5669 5672 5675 5678 5681 5683 5687 5689 5692 5693 5693 5693 5693 5693 5693 5693 5692 5691 5690 5689 5689 5687 5685 5684 5681 5679 5676 5673 5669 5664 5660 5657 5653 5649 5645 5641 5638 5634 5630
5658 5660 5662 5662 5665 5669 5672 5674 5677 5679 5683 5686 5687 5688 5688 5688 5688 5687 5688 5688 5687 5686 5685 5683 5682 5681 5680 5678 5675 5673 5669 5665 5662 5657 5653 5648 5643 5639 5635 5630 5627 5623 5619 5615